[[[{"header":{"parameterUnit":"kt","parameterCategory":2,"dx":1,"dy":1,"la1":30.253999710083008,"la2":30.299108505249023,"lo1":-89.0895004272461,"lo2":-89.04439544677734,"nx":28,"ny":28,"refTime":"2022-10-30T21:00:00:Z","depth":0,"parameterNumber":1,"parameterNumberName":"U-component_of_WINDS"},"data":[-1.1604,-1.1574,-1.1534,-1.1483,-1.1438,-1.1398,-1.137,-1.1331,-1.129,-1.1238,-1.1202,-1.1158,-1.1102,-1.105,-1.101,-1.0992,-1.0979,-1.1001,-1.0977,-1.0913,-1.0901,-1.0891,-1.0895,-1.0998,-1.0998,-1.105,-1.1051,-1.1051,-1.1573,-1.1529,-1.1488,-1.1421,-1.1387,-1.1343,-1.1287,-1.1262,-1.1226,-1.1173,-1.1133,-1.1084,-1.104,-1.0972,-1.0924,-1.0913,-1.089,-1.0903,-1.0905,-1.0898,-1.0827,-1.0832,-1.0923,-1.0923,-1.0923,-1.0923,-1.0923,-1.0923,-1.1508,-1.149,-1.1424,-1.1378,-1.1333,-1.1289,-1.1266,-1.121,-1.117,-1.111,-1.1067,-1.1026,-1.0965,-1.0883,-1.0844,-1.0813,-1.079,-1.0792,-1.0793,-1.0796,-1.0807,-1.0748,-1.0802,-1.0801,-1.0801,-1.08,-1.08,0,-1.1447,-1.1414,-1.1368,-1.1313,-1.1277,-1.1229,-1.1178,-1.1162,-1.1073,-1.1043,-1.0997,-1.0963,-1.0897,-1.085,-1.0792,-1.075,-1.0701,-1.0689,-1.0691,-1.0714,-1.0745,-1.0734,-1.0626,-1.0687,-1.0686,-1.0685,-1.0685,-1.0684,-1.1381,-1.1362,-1.1269,-1.1245,-1.1204,-1.1163,-1.1131,-1.1053,-1.1022,-1.0948,-1.0936,-1.0886,-1.0841,-1.0774,-1.0707,-1.0658,-1.0633,-1.0663,-1.0625,-1.065,-1.064,-1.0643,-1.0644,-1.0672,-1.0674,-1.0675,-1.0676,0,-1.135,-1.1276,-1.1233,-1.114,-1.1117,-1.1102,-1.1024,-1.1002,-1.0948,-1.0911,-1.0898,-1.0813,-1.0767,-1.0694,-1.0627,-1.0591,-1.0575,-1.055,-1.0598,-1.0591,-1.0614,-1.0614,-1.0688,-1.0696,-1.0584,-1.0585,-1.0586,0,-1.1266,-1.1243,-1.1136,-1.1113,-1.1088,-1.1007,-1.0984,-1.0934,-1.0874,-1.0844,-1.0773,-1.0747,-1.0655,-1.062,-1.0565,-1.0538,-1.0523,-1.0496,-1.0482,-1.0504,-1.0508,-1.0488,-1.0485,-1.0445,-1.0444,-1.0444,-1.0444,0,-1.1225,-1.1137,-1.11,-1.1068,-1.0965,-1.095,-1.0907,-1.0837,-1.0805,-1.075,-1.0729,-1.0671,-1.064,-1.0598,-1.0529,-1.0507,-1.0492,-1.0447,-1.0464,-1.0466,-1.0465,-1.0466,-1.0548,-1.0444,-1.0443,-1.0443,-1.0443,0,-1.1145,-1.1088,-1.1044,-1.0957,-1.0937,-1.0911,-1.0848,-1.0809,-1.0741,-1.0704,-1.066,-1.0603,-1.0567,-1.053,-1.0482,-1.0474,-1.0449,-1.0417,-1.0417,-1.0411,-1.0372,-1.0433,-1.0515,-1.0523,-1.0406,-1.0406,-1.0405,0,-1.1123,-1.1055,-1.0983,-1.0941,-1.09,-1.0822,-1.0793,-1.0733,-1.068,-1.0639,-1.0581,-1.0534,-1.0489,-1.0464,-1.045,-1.0389,-1.0399,-1.0384,-1.0334,-1.0333,-1.0359,-1.0432,-1.0465,-1.0505,-1.04,-1.0401,-1.0401,0,-1.1094,-1.0962,-1.0959,-1.092,-1.0823,-1.0785,-1.0751,-1.0684,-1.0662,-1.0598,-1.057,-1.0498,-1.0464,-1.0421,-1.0366,-1.0355,-1.039,-1.0318,-1.0315,-1.0338,-1.0388,-1.0421,-1.0428,-1.0357,-1.0357,-1.0358,-1.0397,0,-1.0999,-1.0951,-1.0939,-1.0848,-1.0806,-1.0773,-1.0688,-1.0657,-1.0608,-1.0552,-1.0505,-1.0431,-1.0363,-1.0347,-1.0298,-1.0294,-1.0284,-1.0245,-1.0203,-1.0251,-1.0262,-1.0266,-1.0194,-1.0193,-1.0191,-1.019,0,0,-1.0997,-1.0926,-1.0843,-1.0803,-1.0764,-1.0679,-1.0652,-1.0603,-1.0505,-1.0481,-1.0456,-1.0345,-1.0285,-1.0237,-1.0245,-1.0215,-1.0209,-1.0193,-1.0228,-1.0232,-1.0236,-1.025,-1.0255,-1.0187,-1.0187,-1.0186,-1.0186,0,-1.0944,-1.0881,-1.0852,-1.0797,-1.0712,-1.0651,-1.0645,-1.0545,-1.0507,-1.0456,-1.0388,-1.0349,-1.0258,-1.0206,-1.0168,-1.0197,-1.0148,-1.0181,-1.0227,-1.0216,-1.0222,-1.0228,-1.0243,-1.0249,-1.0182,-1.0182,-1.0182,0,-1.0903,-1.0828,-1.0804,-1.0703,-1.0646,-1.0602,-1.0538,-1.0492,-1.0459,-1.0367,-1.0318,-1.0265,-1.0186,-1.0149,-1.0128,-1.0106,-1.0098,-1.0082,-1.0089,-1.0085,-1.007,-1.0078,-1.0085,-0.9993,-0.9992,-0.9992,0,0,-1.0869,-1.0821,-1.0714,-1.0684,-1.0654,-1.0561,-1.0527,-1.0473,-1.0402,-1.0374,-1.0303,-1.0238,-1.0185,-1.0152,-1.0097,-1.0067,-1.0046,-1.0062,-1.0071,-1.0079,-1.008,-1.0066,-1.0074,-0.9991,-0.9991,-0.9991,0,0,-1.0852,-1.0725,-1.0687,-1.0642,-1.0576,-1.0468,-1.0455,-1.0406,-1.0346,-1.034,-1.0247,-1.0225,-1.0188,-1.0138,-1.0133,-1.0081,-1.0041,-1.004,-1.0115,-1.0125,-1.0134,-1.0147,-1.0056,0,0,0,0,0,-1.0751,-1.0741,-1.0708,-1.0687,-1.0557,-1.0487,-1.047,-1.0392,-1.0367,-1.0359,-1.0293,-1.024,-1.0117,-1.0111,-1.0092,-1.0098,-0.9976,-0.9979,-0.9981,-1.007,-1.0082,-1.0092,0,0,0,0,0,0,-1.0742,-1.0717,-1.0708,-1.0601,-1.057,-1.0487,-1.0427,-1.0406,-1.0366,-1.0357,-1.0254,-1.0237,-1.0169,-1.0115,-1.0099,-1.0107,-1.0061,-0.9977,-0.998,-0.9982,-1.0074,-1.0084,-1.0092,0,0,0,0,0,-1.0735,-1.0714,-1.0525,-1.06,-1.0574,-1.0469,-1.0427,-1.0408,-1.0376,-1.0271,-1.0252,-1.0321,-1.0172,-1.0153,-1.0105,-1.0116,-1.0071,-1.0065,-0.9979,-0.9981,-0.9982,-1.0079,0,0,0,0,0,0,-1.0729,-1.0697,-1.0518,-1.0507,-1.0597,-1.0472,-1.0449,-1.0411,-1.0292,-1.0272,-1.0334,-1.0328,-1.0173,-1.0158,-1.0145,-1.0124,-1.0079,-1.0074,-1.007,-0.998,-0.9981,-0.9983,0,0,0,0,0,0,-1.0708,-1.0689,-1.0513,-1.0513,-1.0501,-1.0475,-1.0455,-1.0401,-1.0292,-1.036,-1.0352,-1.0332,-1.0194,-1.0162,-1.0151,-1.0071,-1.0086,-1.008,-1.0077,-1.0074,-0.9981,-0.9982,0,0,0,0,0,0,-1.0699,-1.0682,-1.0515,-1.0506,-1.0496,-1.0369,-1.0426,-1.0297,-1.0291,-1.0367,-1.0288,-1.0287,-1.0199,-1.0187,-1.0156,-1.0081,-1.0073,-1.0085,-1.0082,-1.0079,-1.0077,0,0,0,0,0,0,0,-1.0691,-1.0818,-1.0582,-1.0501,-1.0492,-1.0408,-1.0405,-1.0402,-1.0291,-1.029,-1.0288,-1.0287,-1.0116,-1.011,-1.0104,-1.0089,0,0,-1.0086,-1.0083,0,0,0,0,0,0,0,0,-1.0823,-1.082,-1.0582,-1.0579,-1.0577,-1.0408,-1.0405,-1.0403,-1.029,-1.029,-1.0289,-1.0288,-1.0114,-1.011,-1.0105,0,0,0,0,0,0,0,0,0,0,0,0,0,0,0,-1.0581,-1.058,0,-1.0407,-1.0405,-1.0403,-1.029,-1.029,-1.0289,-1.0288,-1.0113,-1.0109,-1.0105,0,0,0,0,0,0,0,0,0,0,0,0,0,0,0,0,0,0,0,0,0,0,0,0,0,0,0,0,0,0,0,0,0,0,0,0,0,0,0,0,0,0,0,0,0,0,0,0,0,0,0,0,0,0,0,0,0,0,0,0,0,0,0,0,0,0,0,0,0]}],[{"header":{"parameterUnit":"kt","parameterCategory":2,"dx":1,"dy":1,"la1":30.253999710083008,"la2":30.299108505249023,"lo1":-89.0895004272461,"lo2":-89.04439544677734,"nx":28,"ny":28,"refTime":"2022-10-30T21:00:00:Z","depth":0,"parameterNumber":2,"parameterNumberName":"V-component_of_WINDS"},"data":[2.6761,2.6741,2.6715,2.6679,2.6649,2.6619,2.6599,2.657,2.654,2.6498,2.6469,2.6438,2.6394,2.635,2.6314,2.63,2.6285,2.6298,2.6279,2.625,2.6244,2.6238,2.6241,2.6297,2.6297,2.6312,2.6312,2.6312,2.6741,2.6712,2.6686,2.6642,2.6619,2.6591,2.6553,2.6534,2.6507,2.6469,2.6439,2.6399,2.6363,2.6313,2.6273,2.6259,2.6241,2.625,2.6249,2.6241,2.621,2.6214,2.6265,2.6265,2.6265,2.6265,2.6265,2.6265,2.6697,2.6687,2.6645,2.6616,2.6586,2.6557,2.6541,2.6504,2.6476,2.6433,2.6405,2.6373,2.6327,2.6264,2.6235,2.6207,2.6192,2.6191,2.619,2.619,2.6193,2.617,2.6199,2.6198,2.6198,2.6198,2.6198,0,2.6655,2.6634,2.6607,2.6573,2.655,2.6519,2.6487,2.6476,2.6418,2.6397,2.6364,2.6339,2.629,2.6253,2.6209,2.6178,2.6142,2.6136,2.6135,2.6147,2.6163,2.6151,2.6099,2.6135,2.6134,2.6134,2.6133,2.6133,2.6606,2.6598,2.6541,2.6526,2.6501,2.6477,2.6457,2.6406,2.6386,2.6337,2.6328,2.6292,2.626,2.6209,2.6162,2.6124,2.6105,2.6122,2.6099,2.6111,2.6101,2.6101,2.6099,2.6126,2.6127,2.6128,2.6128,0,2.658,2.6537,2.6515,2.6458,2.6444,2.6437,2.6387,2.6373,2.6338,2.6314,2.6305,2.6249,2.6215,2.6165,2.6117,2.6091,2.6073,2.6058,2.6088,2.6081,2.6088,2.6087,2.6127,2.6128,2.6073,2.6074,2.6074,0,2.6519,2.651,2.6444,2.6434,2.6422,2.6372,2.636,2.6328,2.629,2.627,2.6224,2.6206,2.6146,2.6119,2.6082,2.6058,2.605,2.6028,2.6017,2.603,2.6033,2.6015,2.6011,2.5998,2.5998,2.5997,2.5997,0,2.6481,2.6436,2.642,2.6402,2.634,2.6332,2.6306,2.6263,2.6242,2.6208,2.6193,2.6157,2.6136,2.6107,2.6059,2.6045,2.603,2.6001,2.6007,2.6008,2.6004,2.6004,2.6054,2.5997,2.5997,2.5997,2.5997,0,2.6423,2.6393,2.6376,2.6323,2.6313,2.6302,2.6263,2.6242,2.62,2.6176,2.6148,2.611,2.6088,2.6063,2.603,2.6025,2.6007,2.5984,2.5983,2.5975,2.5947,2.5978,2.6034,2.6037,2.5971,2.5971,2.5971,0,2.639,2.6362,2.6319,2.6304,2.6284,2.6232,2.6219,2.6184,2.6151,2.6127,2.6089,2.6063,2.6033,2.6017,2.6009,2.5968,2.5974,2.5966,2.5926,2.5925,2.5937,2.5988,2.6008,2.6029,2.5968,2.5968,2.5968,0,2.6357,2.6284,2.6284,2.6261,2.6207,2.619,2.6176,2.6139,2.6125,2.6091,2.6075,2.6038,2.6012,2.5988,2.5953,2.5946,2.5968,2.592,2.5917,2.5927,2.5963,2.5981,2.5985,2.5945,2.5946,2.5946,2.5966,0,2.6275,2.6256,2.6256,2.6208,2.6188,2.6177,2.6126,2.611,2.6079,2.6045,2.6022,2.5979,2.5939,2.5932,2.5901,2.5903,2.5894,2.5868,2.5837,2.5873,2.5877,2.588,2.5834,2.5833,2.5832,2.5831,0,0,2.6251,2.6223,2.6176,2.6161,2.614,2.6087,2.6079,2.6053,2.6001,2.5986,2.597,2.591,2.5876,2.5853,2.586,2.5845,2.5839,2.5829,2.5857,2.586,2.5863,2.5869,2.5872,2.5829,2.5829,2.5828,2.5828,0,2.621,2.6181,2.6175,2.6146,2.6101,2.6065,2.6064,2.601,2.5987,2.5966,2.592,2.59,2.5855,2.5823,2.5802,2.5832,2.5796,2.5824,2.5857,2.5849,2.5853,2.5857,2.5864,2.5868,2.5826,2.5826,2.5826,0,2.6166,2.6127,2.612,2.6073,2.6043,2.6024,2.598,2.5962,2.5947,2.5887,2.5866,2.5836,2.579,2.5777,2.5769,2.5752,2.576,2.575,2.5755,2.5752,2.574,2.5746,2.5751,2.5685,2.5685,2.5685,0,0,2.6137,2.612,2.6061,2.606,2.6045,2.5991,2.5977,2.5944,2.5906,2.589,2.585,2.5813,2.5785,2.5768,2.574,2.5734,2.5718,2.5735,2.5741,2.5747,2.5747,2.5738,2.5743,2.5684,2.5684,2.5684,0,0,2.6122,2.6055,2.6031,2.6024,2.599,2.5931,2.5931,2.5899,2.587,2.5865,2.5807,2.5794,2.5781,2.5752,2.5745,2.5727,2.5698,2.5699,2.5746,2.5754,2.576,2.5766,2.5691,0,0,0,0,0,2.6053,2.6063,2.6042,2.6033,2.5973,2.5943,2.5935,2.5888,2.5868,2.5869,2.583,2.5794,2.5736,2.5728,2.5719,2.5727,2.5671,2.5673,2.5675,2.5735,2.5743,2.575,0,0,0,0,0,0,2.6049,2.6038,2.6042,2.5984,2.597,2.5942,2.5898,2.5885,2.5867,2.586,2.5803,2.5793,2.5751,2.5729,2.5722,2.573,2.5693,2.5672,2.5674,2.5675,2.5738,2.5745,2.5751,0,0,0,0,0,2.6045,2.6037,2.5954,2.5984,2.5972,2.5912,2.5897,2.5886,2.5871,2.581,2.5799,2.5837,2.5753,2.5743,2.5725,2.5735,2.5698,2.5696,2.5673,2.5674,2.5676,2.5741,0,0,0,0,0,0,2.6043,2.6026,2.595,2.5945,2.5976,2.5913,2.5901,2.5887,2.5821,2.5809,2.5841,2.5837,2.5754,2.5746,2.5739,2.5739,2.5702,2.5699,2.5698,2.5674,2.5675,2.5676,0,0,0,0,0,0,2.603,2.6022,2.5947,2.5941,2.5934,2.5913,2.5903,2.5881,2.5821,2.5855,2.585,2.584,2.5764,2.5749,2.5743,2.571,2.5705,2.5702,2.5701,2.57,2.5675,2.5676,0,0,0,0,0,0,2.6026,2.6018,2.5942,2.5937,2.5931,2.5865,2.5892,2.5833,2.5817,2.5859,2.5814,2.5813,2.5767,2.576,2.5746,2.5715,2.5711,2.5705,2.5703,2.5702,2.5701,0,0,0,0,0,0,0,2.6022,2.6083,2.5983,2.5933,2.5928,2.5894,2.5892,2.589,2.5817,2.5816,2.5814,2.5813,2.5719,2.5716,2.5713,2.572,0,0,2.5705,2.5704,0,0,0,0,0,0,0,0,2.6085,2.6083,2.5983,2.5982,2.5981,2.5893,2.5892,2.5891,2.5817,2.5816,2.5815,2.5814,2.5718,2.5716,2.5714,0,0,0,0,0,0,0,0,0,0,0,0,0,0,0,2.5983,2.5982,0,2.5893,2.5892,2.5891,2.5816,2.5816,2.5815,2.5814,2.5718,2.5716,2.5714,0,0,0,0,0,0,0,0,0,0,0,0,0,0,0,0,0,0,0,0,0,0,0,0,0,0,0,0,0,0,0,0,0,0,0,0,0,0,0,0,0,0,0,0,0,0,0,0,0,0,0,0,0,0,0,0,0,0,0,0,0,0,0,0,0,0,0,0,0]}]]]